Station OLSA2 - 9462450 - Nikolski, AK Image indicating link to RSS feed of recent meteorological observations for station OLSA2


Conditions at OLSA2 as of
(5:30 pm AKDT on 04/15/2024)
0130 GMT on 04/16/2024:
     

Click on the graph icon in the table below to see a time series plot of the last five days of that observation.

5-day plot - Wind Direction Wind Direction (WDIR): NW ( 310 deg true )
5-day plot - Wind Speed Wind Speed (WSPD): 14.0 kts
5-day plot - Wind Gust Wind Gust (GST): 15.0 kts
5-day plot - Atmospheric Pressure Atmospheric Pressure (PRES):29.78 in
5-day plot - Air Temperature Air Temperature (ATMP): 40.1 °F
5-day plot - Wind Chill Wind Chill (CHILL): 31.6 °F
5-day plot - Wind Speed at 10 Meters Wind Speed at 10 meters (WSPD10M): 13.6 kts
5-day plot - Wind Speed at 20 Meters Wind Speed at 20 meters (WSPD20M): 15.5 kts
5-day plot -  Wind Speed, Wind Gust and Atmospheric Pressure Combined plot of Wind Speed, Gust, and Air Pressure
NOS Water Level Observation Network Water Level
Previous observations
TIME
(AKDT)
5-day plot - Wind Direction
WDIR
 
5-day plot - Wind Speed
WSPD
kts
5-day plot - Wind Gust
GST
kts
5-day plot - Wave Height
WVHT
ft
5-day plot - Dominant Wave Period
DPD
sec
5-day plot - Average Wave Period
APD
sec
5-day plot - Mean Wave Direction
MWD
 
5-day plot - Atmospheric Pressure
PRES
in
5-day plot - Pressure Tendency
PTDY
in
5-day plot - Air Temperature
ATMP
°F
5-day plot - Water Temperature
WTMP
°F
5-day plot - Dew Point
DEWP
°F
5-day plot - Salinity
SAL
psu
5-day plot - Visibility
VIS
nmi
5-day plot - Tide (above MLLW)
TIDE
ft
2024-04-15 05:24 pmWNW 13.0 15.9----29.79- 40.3-----
2024-04-15 05:18 pm NW 13.0 15.0----29.78- 40.1-----
2024-04-15 05:12 pm NW 12.0 14.0----29.78- 39.6-----
2024-04-15 05:06 pmWNW 12.0 14.0----29.78- 40.1-----
2024-04-15 05:00 pm NW 13.0 15.0----29.78+0.01------
2024-04-15 04:54 pmWNW 11.1 13.0----29.78-------
2024-04-15 04:48 pmWNW 11.1 15.0----29.78- 40.1-----
2024-04-15 04:42 pm NW 13.0 14.0----29.78- 40.5-----
2024-04-15 04:36 pm NW 13.0 15.0----29.78- 40.6-----
2024-04-15 04:30 pm NW 12.0 14.0----29.78- 40.1-----
2024-04-15 04:24 pm NW 13.0 14.0----29.78- 40.1-----
2024-04-15 04:18 pm NW 12.0 14.0----29.78-------
2024-04-15 04:12 pm NW 9.9 13.0----29.78-------
2024-04-15 04:06 pm NW 11.1 13.0----29.78-------
2024-04-15 04:00 pmWNW 9.9 13.0----29.78+0.02 41.2-----
2024-04-15 03:54 pm NW 12.0 14.0----29.78- 41.2-----
2024-04-15 03:48 pm NW 9.9 13.0----29.78- 40.8-----
2024-04-15 03:42 pm NW 11.1 13.0----29.78- 40.8-----
2024-04-15 03:36 pmWNW 11.1 13.0----29.78- 40.3-----
2024-04-15 03:30 pmWNW 12.0 15.9----29.78- 40.3-----
2024-04-15 03:24 pmWNW 12.0 14.0----29.77- 41.2-----
2024-04-15 03:18 pm W 9.9 13.0----29.78- 41.0-----
2024-04-15 03:12 pm W 11.1 14.0----29.78- 41.0-----
2024-04-15 03:06 pmWNW 12.0 13.0----29.78- 40.5-----
2024-04-15 03:00 pmWNW 9.9 12.0----29.78+0.04 40.3-----
2024-04-15 02:54 pm W 9.9 13.0----29.78- 41.9-----
2024-04-15 02:48 pm W 9.9 12.0----29.77- 41.4-----
2024-04-15 02:42 pmWNW 8.0 12.0----29.78- 41.0-----
2024-04-15 02:36 pm W 8.9 12.0----29.77- 40.6-----
2024-04-15 02:30 pm W 11.1 13.0----29.77-------
2024-04-15 02:24 pm W 12.0 15.9----29.77-------
2024-04-15 02:18 pm W 14.0 15.0----29.76- 40.8-----
2024-04-15 02:12 pm W 13.0 15.0----29.76- 41.0-----
2024-04-15 02:06 pmWNW 9.9 13.0----29.77- 40.6-----
2024-04-15 02:00 pm W 12.0 13.0----29.77+0.03 40.5-----
2024-04-15 01:54 pm W 11.1 12.0----29.77- 39.9-----
2024-04-15 01:48 pm W 9.9 11.1----29.77- 40.5-----
2024-04-15 01:42 pm W 8.9 9.9----29.76- 40.5-----
2024-04-15 01:36 pm W 7.0 11.1----29.76- 40.5-----
2024-04-15 01:30 pmWNW 8.9 13.0----29.76- 39.9-----
2024-04-15 01:24 pmWNW 9.9 12.0----29.76- 39.6-----
2024-04-15 01:18 pm W 9.9 13.0------ 39.7-----
2024-04-15 01:12 pm W 12.0 14.0------ 39.7-----
2024-04-15 01:06 pm W 11.1 15.9------ 39.6-----
2024-04-15 01:00 pm W 11.1 13.0----29.76+0.02 39.7-----
2024-04-15 12:54 pmWSW 11.1 17.1----29.75- 40.1-----
2024-04-15 12:48 pmWSW 12.0 14.0----29.75- 39.9-----
2024-04-15 12:42 pmWSW 11.1 14.0----29.76- 40.5-----
2024-04-15 12:36 pm SW 14.0 17.1----29.75- 40.5-----
2024-04-15 12:30 pm SW 13.0 17.1----29.75- 40.5-----
2024-04-15 12:24 pm SW 8.9 15.0----29.75- 40.5-----
2024-04-15 12:18 pm SW 12.0 15.0----29.75- 40.3-----
2024-04-15 12:12 pmWSW 14.0 17.1----29.75- 40.3-----
2024-04-15 12:06 pm SW 12.0 17.1----29.75- 40.6-----
2024-04-15 12:00 pm SW 15.0 19.0----29.74+0.00 40.6-----
2024-04-15 11:54 am SW 13.0 17.1----29.74- 40.5-----
2024-04-15 11:48 am SW 12.0 15.9----29.74- 39.7-----
2024-04-15 11:42 am SW 13.0 19.0----29.74- 39.9-----
2024-04-15 11:36 amSSW 15.0 20.0----29.74- 39.6-----
2024-04-15 11:30 amSSW 12.0 15.0----29.74- 39.4-----
2024-04-15 11:24 amSSW 14.0 19.0----29.74- 39.4-----
2024-04-15 11:18 amSSW 13.0 17.1----29.74- 39.6-----
2024-04-15 11:12 am SW 12.0 14.0----29.74- 39.4-----
2024-04-15 11:06 amSSW 11.1 15.9----29.74- 39.7-----
2024-04-15 11:00 am SW 13.0 18.1----29.74+0.02 39.7-----
2024-04-15 10:54 am SW 12.0 15.9----29.74- 39.9-----
2024-04-15 10:48 amSSW 15.9 20.0----29.73- 39.7-----
2024-04-15 10:42 am SW 13.0 17.1----29.74- 39.2-----
2024-04-15 10:36 amSSW 12.0 17.1----29.74- 39.2-----
2024-04-15 10:30 am SW 14.0 19.0----29.74- 38.3-----
2024-04-15 10:24 am SW 15.9 19.0----29.73- 38.1-----
2024-04-15 10:18 am SW 17.1 19.0----29.73- 38.5-----
2024-04-15 10:12 amSSW 12.0 15.9----29.74- 38.7-----
2024-04-15 10:06 amSSW 12.0 15.0----29.74- 38.3-----
2024-04-15 10:00 amSSW 13.0 15.9----29.73+0.01 38.1-----
2024-04-15 09:54 amSSW 11.1 15.9----29.73- 37.8-----
2024-04-15 09:48 amSSW 11.1 18.1----29.73- 37.9-----
2024-04-15 09:42 amSSW 15.0 20.0----29.74- 37.9-----
2024-04-15 09:36 amSSW 15.0 22.0----29.73- 38.1-----
2024-04-15 09:30 amSSW 18.1 21.0----29.73- 38.1-----
2024-04-15 09:24 am SW 17.1 20.0----29.74- 38.1-----
2024-04-15 09:18 am SW 15.9 19.0----29.73- 38.1-----
2024-04-15 09:12 am SW 9.9 15.0----29.72- 38.5-----
2024-04-15 09:06 amSSW 12.0 15.0----29.73- 38.5-----
2024-04-15 09:00 am SW 15.0 21.0----29.74-0.01 38.7-----
2024-04-15 08:54 amSSW 20.0 25.1----29.73- 39.0-----
2024-04-15 08:48 am S 20.0 24.1----29.73- 39.9-----
2024-04-15 08:42 am S 21.0 27.0----29.72- 39.9-----
2024-04-15 08:36 am S 21.0 28.9----29.72- 39.7-----
2024-04-15 08:30 am S 21.0 28.0----29.72- 39.7-----
2024-04-15 08:24 am S 22.9 34.0----29.72- 39.7-----
2024-04-15 08:18 am S 28.0 35.9----29.71- 39.7-----
2024-04-15 08:12 am S 29.9 38.1----29.71- 39.6-----
2024-04-15 08:06 am S 28.0 39.0----29.72- 39.6-----
2024-04-15 08:00 am S 28.9 35.9----29.72-0.04 39.6-----
2024-04-15 07:54 am S 24.1 34.0----29.72- 39.4-----
2024-04-15 07:48 am S 28.9 34.0----29.71- 39.4-----
2024-04-15 07:42 am S 28.9 34.0----29.72- 39.4-----
2024-04-15 07:36 am S 27.0 33.0----29.72- 39.4-----
2024-04-15 07:30 am S 25.1 34.0----29.72- 39.4-----
2024-04-15 07:24 am S 25.1 35.0----29.72- 39.2-----
2024-04-15 07:18 am S 28.0 34.0----29.72- 39.2-----
2024-04-15 07:12 amSSE 28.0 39.0----29.72- 39.0-----
2024-04-15 07:06 amSSE 29.9 38.1----29.72- 39.0-----
2024-04-15 07:00 amSSE 29.9 39.0----29.72-0.09 39.0-----
2024-04-15 06:54 amSSE 33.0 42.0----29.72- 38.8-----
2024-04-15 06:48 amSSE 31.1 39.0----29.73- 38.8-----
2024-04-15 06:42 amSSE 31.1 39.0----29.74- 38.8-----
2024-04-15 06:36 amSSE 28.9 36.9----29.74- 38.7-----
2024-04-15 06:30 amSSE 27.0 35.9----29.75-------
2024-04-15 06:24 amSSE 29.9 38.1----29.75-------
2024-04-15 06:18 amSSE 29.9 38.1----29.75- 38.7-----
2024-04-15 06:12 amSSE 29.9 40.0----29.75- 38.7-----
2024-04-15 06:06 amSSE 29.9 44.1----29.75- 38.7-----
2024-04-15 06:00 amSSE 33.0 41.0----29.75-0.11 38.5-----
2024-04-15 05:54 amSSE 36.9 47.0----29.74- 38.5-----
2024-04-15 05:48 amSSE 38.1 47.0----29.74- 38.3-----
2024-04-15 05:42 amSSE 35.9 46.0----29.74- 38.5-----
2024-04-15 05:36 amSSE 39.0 47.0----29.75- 38.3-----
2024-04-15 05:30 amSSE 32.1 42.9----29.75- 38.3-----
2024-04-15 05:24 amSSE 35.9 44.1----29.75- 38.3-----
2024-04-15 05:18 amSSE 38.1 47.0----29.75- 38.3-----
2024-04-15 05:12 amSSE 40.0 48.0----29.75- 38.3-----
2024-04-15 05:06 amSSE 39.0 47.0----29.75- 38.3-----
2024-04-15 05:00 amSSE 40.0 49.9----29.76-0.12 38.3-----
2024-04-15 04:54 amSSE 36.9 51.1----29.76- 38.3-----
2024-04-15 04:48 amSSE 36.9 45.1----29.76- 38.1-----
2024-04-15 04:42 amSSE 39.0 46.0----29.77- 38.1-----
2024-04-15 04:36 amSSE 35.9 49.0----29.77- 37.9-----
2024-04-15 04:30 amSSE 38.1 49.9----29.78- 37.9-----
2024-04-15 04:24 amSSE 35.0 51.1----29.78- 37.9-----
2024-04-15 04:18 amSSE 38.1 47.0----29.79- 37.9-----
2024-04-15 04:12 amSSE 39.0 52.1----29.79- 37.9-----
2024-04-15 04:06 amSSE 38.1 46.0----29.80- 37.8-----
2024-04-15 04:00 amSSE 33.0 49.9----29.80-0.14 37.9-----
2024-04-15 03:54 amSSE 33.0 45.1----29.81- 37.9-----
2024-04-15 03:48 amSSE 36.9 45.1----29.81- 37.8-----
2024-04-15 03:42 amSSE 40.0 47.0----29.82- 37.9-----
2024-04-15 03:36 amSSE 39.0 45.1----29.83- 37.8-----
2024-04-15 03:30 amSSE 36.9 47.0----29.83- 37.8-----
2024-04-15 03:24 amSSE 35.9 44.1----29.84- 37.8-----
2024-04-15 03:18 amSSE 35.0 48.0----29.84- 37.8-----
2024-04-15 03:12 amSSE 39.0 51.1----29.85- 37.6-----
2024-04-15 03:06 amSSE 42.0 49.0----29.85- 37.4-----
2024-04-15 03:00 amSSE 38.1 46.0----29.85-0.12 37.6-----
2024-04-15 02:54 amSSE 38.1 44.1----29.86- 37.8-----
2024-04-15 02:48 amSSE 32.1 48.0----29.86- 37.6-----
2024-04-15 02:42 amSSE 35.9 45.1----29.86- 37.4-----
2024-04-15 02:36 amSSE 39.0 46.0----29.86- 37.2-----
2024-04-15 02:30 amSSE 34.0 48.0----29.86- 37.0-----
2024-04-15 02:24 amSSE 40.0 49.0----29.87- 37.0-----
2024-04-15 02:18 amSSE 39.0 48.0----29.87- 36.9-----
2024-04-15 02:12 amSSE 38.1 45.1----29.87- 36.9-----
2024-04-15 02:06 amSSE 38.1 49.0----29.88- 36.7-----
2024-04-15 02:00 amSSE 42.0 49.0----29.88-0.14 36.7-----
2024-04-15 01:54 amSSE 35.0 47.0----29.88- 36.5-----
2024-04-15 01:48 amSSE 38.1 48.0----29.89- 36.0-----
2024-04-15 01:42 amSSE 35.9 48.0----29.90- 35.6-----
2024-04-15 01:36 am SE 38.1 45.1----29.90- 35.6-----
2024-04-15 01:30 am SE 35.0 48.0----29.90- 35.4-----
2024-04-15 01:24 am SE 40.0 49.0----29.91- 35.8-----
2024-04-15 01:18 am SE 38.1 48.0----29.92- 36.0-----
2024-04-15 01:12 am SE 35.0 42.0----29.93- 36.1-----
2024-04-15 01:06 amSSE 35.9 47.0----29.94- 36.1-----
2024-04-15 01:00 amSSE 38.1 49.9----29.94-0.10 36.3-----
2024-04-15 12:54 am SE 35.9 44.1----29.94- 36.3-----
2024-04-15 12:48 amSSE 35.9 44.1----29.95- 36.0-----
2024-04-15 12:42 amSSE 38.1 49.9----29.96- 36.1-----
2024-04-15 12:36 amSSE 32.1 47.0----29.96- 36.3-----
2024-04-15 12:30 amSSE 35.9 46.0----29.96- 36.5-----
2024-04-15 12:24 amSSE 38.1 47.0----29.96- 36.3-----
2024-04-15 12:18 amSSE 32.1 48.0----29.97- 36.9-----
2024-04-15 12:12 amSSE 39.0 45.1----29.97- 37.0-----
2024-04-15 12:06 amSSE 35.9 42.9----29.97- 37.2-----
2024-04-15 12:00 amSSE 41.0 52.1----29.98-0.13 37.0-----
2024-04-14 11:54 pm SE 39.0 48.0----29.98- 37.8-----
2024-04-14 11:48 pm SE 33.0 44.1----29.98- 38.1-----
2024-04-14 11:42 pmSSE 36.9 49.0----29.99- 38.5-----
2024-04-14 11:36 pm SE 40.0 47.0----29.99- 38.7-----
2024-04-14 11:30 pm SE 38.1 45.1----30.00- 38.7-----
2024-04-14 11:24 pm SE 32.1 45.1----30.01- 38.5-----
2024-04-14 11:18 pm SE 35.9 42.9----30.01- 38.7-----
2024-04-14 11:12 pm SE 35.9 46.0----30.02- 38.5-----
2024-04-14 11:06 pm SE 33.0 41.0----30.02- 38.5-----
2024-04-14 11:00 pm SE 34.0 42.0----30.02-0.14 38.3-----
2024-04-14 10:54 pm SE 35.9 45.1----30.03- 38.5-----
2024-04-14 10:48 pmSSE 29.9 45.1----30.03- 38.5-----
2024-04-14 10:42 pm SE 35.9 44.1----30.03- 38.3-----
2024-04-14 10:36 pm SE 36.9 42.9----30.04- 38.3-----
2024-04-14 10:30 pm SE 35.9 47.0----30.04- 38.3-----
2024-04-14 10:24 pm SE 33.0 42.9----30.04- 38.3-----
2024-04-14 10:18 pm SE 36.9 46.0----30.04- 38.3-----
2024-04-14 10:12 pmSSE 35.9 49.0----30.04- 38.3-----
2024-04-14 10:06 pm SE 36.9 42.9----30.04- 38.1-----
2024-04-14 10:00 pm SE 34.0 45.1----30.04-0.15 38.1-----
2024-04-14 09:54 pm SE 39.0 47.0----30.05- 38.1-----
2024-04-14 09:48 pmSSE 40.0 47.0----30.05- 38.1-----
2024-04-14 09:42 pm SE 36.9 45.1----30.06- 37.9-----
2024-04-14 09:36 pm SE 32.1 42.0----30.07- 38.1-----
2024-04-14 09:30 pm SE 34.0 42.0----30.07- 37.9-----
2024-04-14 09:24 pm SE 32.1 41.0----30.09- 38.1-----
2024-04-14 09:18 pm SE 32.1 40.0----30.10- 38.1-----
2024-04-14 09:12 pm SE 34.0 41.0----30.10- 37.9-----
2024-04-14 09:06 pm SE 29.9 39.0----30.11- 37.9-----
2024-04-14 09:00 pm SE 32.1 41.0----30.11-0.12 37.8-----
2024-04-14 08:54 pm SE 32.1 41.0----30.12- 37.8-----
2024-04-14 08:48 pm SE 35.9 42.0----30.12- 37.8-----
2024-04-14 08:42 pm SE 32.1 41.0----30.13- 37.8-----
2024-04-14 08:36 pm SE 33.0 42.0----30.13- 37.8-----
2024-04-14 08:30 pm SE 35.0 42.9----30.14- 37.8-----
2024-04-14 08:24 pm SE 31.1 45.1----30.14- 37.8-----
2024-04-14 08:18 pm SE 29.9 42.0----30.15- 37.8-----
2024-04-14 08:12 pm SE 31.1 38.1----30.15- 37.6-----
2024-04-14 08:06 pmSSE 33.0 42.0----30.16- 37.8-----
2024-04-14 08:00 pm SE 33.0 41.0----30.16-0.12 37.6-----
2024-04-14 07:54 pm SE 35.9 41.0----30.16- 37.4-----
2024-04-14 07:48 pm SE 28.9 40.0----30.17- 37.6-----
2024-04-14 07:42 pm SE 33.0 41.0----30.17- 37.4-----
2024-04-14 07:36 pm SE 32.1 41.0----30.17- 37.4-----
2024-04-14 07:30 pm SE 31.1 39.0----30.18- 37.6-----
2024-04-14 07:24 pm SE 29.9 41.0----30.18- 37.6-----
2024-04-14 07:18 pm SE 33.0 40.0----30.18- 37.4-----
2024-04-14 07:12 pm SE 35.0 41.0----30.18- 37.2-----
2024-04-14 07:06 pm SE 34.0 41.0----30.19- 37.4-----
2024-04-14 07:00 pm SE 33.0 41.0----30.19-0.13 37.2-----
2024-04-14 06:54 pm SE 31.1 38.1----30.20- 37.4-----
2024-04-14 06:48 pm SE 33.0 41.0----30.20- 37.2-----
2024-04-14 06:42 pm SE 33.0 39.0----30.21- 37.0-----
2024-04-14 06:36 pm SE 34.0 40.0----30.21- 37.0-----
2024-04-14 06:30 pm SE 33.0 39.0----30.22- 37.0-----
2024-04-14 06:24 pm SE 34.0 39.0----30.22- 37.0-----
2024-04-14 06:18 pm SE 33.0 40.0----30.22- 37.0-----
2024-04-14 06:12 pm SE 35.0 41.0----30.22- 36.9-----
2024-04-14 06:06 pm SE 31.1 40.0----30.23- 37.0-----
2024-04-14 06:00 pm SE 33.0 38.1----30.23-0.14 36.9-----
2024-04-14 05:54 pm SE 28.9 38.1----30.24- 36.9-----